Regional Weather Roundup
Issued by NWS

Home | Current Version | Previous Version | Graphics & Text | Print | Product List | Glossary On
Versions: 1 2 3 4 5 6 7 8 9 10 11 12 13 14 15 16 17 18 19 20 21 22 23 24 25 26 27 28 29 30 31 32 33 34 35 36 37 38 39 40 41 42 43 44 45 46 47 48 49 50
000
ASUS43 KBIS 241920
RWRND

NORTH DAKOTA REGIONAL WEATHER ROUNDUP
NATIONAL WEATHER SERVICE BISMARCK ND
200 PM CDT THU JUL 24 2014

NOTE: "FAIR" INDICATES FEW OR NO CLOUDS BELOW 12,000 FEET WITH NO
SIGNIFICANT WEATHER AND/OR OBSTRUCTIONS TO VISIBILITY.


NDZ001>003-009>011-017-242000-
NORTHWEST NORTH DAKOTA

CITY           SKY/WX    TMP DP  RH WIND       PRES   REMARKS
WILLISTON      MOSUNNY   79  63  57 S10       29.80R
MINOT          SUNNY     80  64  58 S18G24    29.78F
MINOT AFB      SUNNY     79  66  65 S20       29.78F
$$

NDZ018>021-031>035-040>046-242000-
SOUTHWEST NORTH DAKOTA

CITY           SKY/WX    TMP DP  RH WIND       PRES   REMARKS
BISMARCK       CLOUDY    77  62  59 SE24G31   29.83F
DICKINSON      CLOUDY    73  64  73 SE16      29.79F
GARRISON         N/A     76  65  68 SE20G29   29.81F
HETTINGER ARPT SUNNY     81  65  58 SE18      29.79F
$$

NDZ004>008-012>016-024-026-027-054-242000-
NORTHEAST NORTH DAKOTA

CITY           SKY/WX    TMP DP  RH WIND       PRES   REMARKS
GRAND FORKS    CLOUDY    74  63  68 S23       29.85F
GRND FRKS AFB  CLOUDY    73  65  74 S24G31    29.86F
DEVILS LAKE    MOSUNNY   73  61  64 S20G30    29.85R
$$

NDZ022-023-025-028>030-036>039-047>053-242000-
SOUTHEAST NORTH DAKOTA

CITY           SKY/WX    TMP DP  RH WIND       PRES   REMARKS
FARGO          CLOUDY    69  59  70 SE9       29.91F
JAMESTOWN      PTSUNNY   72  61  68 SE17      29.87F
$$




USA.gov is the U.S. government's official web portal to all federal, state and local government web resources and services.